Odiham, United Kingdom

8:53 AM BST on March 28, 2017 (GMT +0100)
Odiham Air Base

Weather History for EGVO - November, 2013

Change the Weather History Date:

Tuesday, November 19, 2013

  Actual Average Record
Temperature  
Mean Temperature 36 °F -  
Max Temperature 41 °F - - ()
Min Temperature 30 °F - - ()
Degree Days  
Heating Degree Days 30    
Moisture  
Dew Point 32 °F    
Average Humidity 82    
Maximum Humidity 93    
Minimum Humidity 55    
Precipitation  
Precipitation 0.01 in - - ()
Sea Level Pressure  
Sea Level Pressure 29.94 in    
Wind  
Wind Speed 8 mph ()    
Max Wind Speed 16 mph    
Max Gust Speed 20 mph    
Visibility 8.6 miles    
Events      
T = Trace of Precipitation, MM = Missing Value Source: Averaged Metar Reports

Daily Weather History Graph

Daily Weather History Graph

Search for Another Location

Airport or City:

Trip Planner

Search our weather history database for the weather conditions in past years. The results will help you decide how hot, cold, wet, or windy it might be!

Date:

Astronomy

Nov. 19, 2013 Rise Set
Actual Time 7:27 AM GMT 4:10 PM GMT
Civil Twilight 6:50 AM GMT 4:47 PM GMT
Nautical Twilight 6:09 AM GMT 5:28 PM GMT
Astronomical Twilight 5:30 AM GMT 6:07 PM GMT
Moon 5:46 PM GMT (11/19) 8:57 AM GMT (11/19)
Length of Visible Light 9h 57m
Length of Day
8h 42m
Full, 97% of the Moon is Illuminated
Nov 19
Full
Nov 25
Last Quarter
Dec 3
New
Dec 9
First Quarter
Dec 17
Full

Hourly Weather History & Observations

Time (GMT) Temp. Windchill Dew Point Humidity Pressure Visibility Wind Dir Wind Speed Gust Speed Precip Events Conditions
12:00 AM 42 °F - 39 °F 85% 29.84 in 19 mi WNW 9.2 mph - -   Partly Cloudy
12:50 AM 41.0 °F 34.7 °F 37.4 °F 87% 29.80 in - WNW 10.4 mph - N/A   Clear
1:50 AM 39.2 °F 32.5 °F 37.4 °F 93% 29.83 in - WNW 10.4 mph - N/A   Clear
2:50 AM 37.4 °F 31.4 °F 35.6 °F 93% 29.83 in - West 8.1 mph - N/A   Clear
3:00 AM 37 °F - 36 °F 92% 29.85 in 12 mi West 8.1 mph - -   Scattered Clouds
3:50 AM 37.4 °F 31.4 °F 33.8 °F 87% 29.83 in - West 8.1 mph - N/A   Clear
4:50 AM 35.6 °F 31.7 °F 33.8 °F 93% 29.83 in - West 4.6 mph - N/A   Clear
5:50 AM 33.8 °F 29.6 °F 32.0 °F 93% 29.86 in - WNW 4.6 mph - N/A   Clear
6:00 AM 34 °F - 32 °F 91% 29.88 in 16 mi WNW 4.6 mph - -  
6:50 AM 35.6 °F 29.9 °F 32.0 °F 87% 29.86 in 6.2 mi WNW 6.9 mph - N/A   Partly Cloudy
7:08 AM 33.8 °F 28.6 °F 32.0 °F 93% 29.86 in 6.2 mi WNW 5.8 mph - N/A   Partly Cloudy
7:50 AM 33.8 °F 27.0 °F 32.0 °F 93% 29.89 in 6.2 mi West 8.1 mph - N/A   Scattered Clouds
8:50 AM 35.6 °F 27.5 °F 32.0 °F 87% 29.89 in - WNW 11.5 mph - N/A   Clear
9:50 AM 37.4 °F 30.3 °F 33.8 °F 87% 29.92 in 6.2 mi WNW 10.4 mph - N/A   Partly Cloudy
10:50 AM 39.2 °F 31.6 °F 32.0 °F 75% 29.95 in 6.2 mi NW 12.7 mph - N/A   Partly Cloudy
11:50 AM 41.0 °F 32.8 °F 32.0 °F 70% 29.95 in 6.2 mi NW 16.1 mph - N/A   Scattered Clouds
12:00 PM 40 °F - 33 °F 66% 29.97 in 25 mi NW 16.1 mph - -   Partly Cloudy
12:50 PM 41.0 °F 32.8 °F 30.2 °F 65% 29.95 in 6.2 mi NW 16.1 mph - N/A   Partly Cloudy
1:50 PM 41.0 °F 33.1 °F 30.2 °F 65% 29.95 in 6.2 mi NW 15.0 mph - N/A   Partly Cloudy
2:50 PM 41.0 °F 33.5 °F 30.2 °F 65% 29.98 in 6.2 mi NNW 13.8 mph - N/A   Partly Cloudy
3:00 PM 40 °F - 29 °F 55% 29.99 in 25 mi NNW 13.8 mph - -   Scattered Clouds
3:50 PM 39.2 °F 32.5 °F 30.2 °F 70% 29.98 in 6.2 mi NW 10.4 mph - N/A   Partly Cloudy
4:50 PM 35.6 °F 29.9 °F 30.2 °F 81% 30.01 in 6.2 mi NW 6.9 mph - N/A   Partly Cloudy
5:50 PM 35.6 °F 29.9 °F 30.2 °F 81% 30.04 in 6.2 mi NW 6.9 mph - N/A   Partly Cloudy
6:00 PM 35 °F - 30 °F 74% 30.06 in 13 mi NW 6.9 mph - -   Scattered Clouds
6:50 PM 33.8 °F 27.7 °F 30.2 °F 87% 30.04 in - WNW 6.9 mph 19.6 mph N/A   Clear
7:50 PM 32.0 °F 25.6 °F 28.4 °F 87% 30.06 in - West 6.9 mph - N/A   Clear
8:50 PM 32.0 °F 26.4 °F 28.4 °F 87% 30.06 in - West 5.8 mph - N/A   Clear
9:00 PM 32 °F - 28 °F 79% 30.09 in 12 mi West 5.8 mph - -  
9:50 PM 32.0 °F 25.6 °F 28.4 °F 87% 30.06 in - West 6.9 mph - N/A   Clear
10:50 PM 30.2 °F 23.4 °F 26.6 °F 86% 30.04 in - West 6.9 mph - N/A   Clear
11:50 PM 30.2 °F 24.3 °F 26.6 °F 86% 30.04 in - West 5.8 mph - N/A   Clear